カタログに戻る

STARLINK-5375

運用中通信VLEO
NORAD 56140·PAYLOAD·🇺🇸 United States

打ち上げ Mar 29, 2023 から Cape Canaveral Space Force Station

Loading…

次のパス (今後24時間)

TLE

最新Source: CelesTrak SupGP

元期: Sep 15, 2026, 02:03 UTC

1 56140C 23046AZ  26258.08590278  .00026843  00000+0  97232-3 0  2589
2 56140  43.0016 157.7512 0001019 264.1881  15.8212 15.27563138    12

AllMySatでSTARLINK-5375をリアルタイム追跡

Download on the App Store